Weather History for KIMT - June, 2013

Change the Weather History Date:

Friday, June 14, 2013

  Actual Average Record
Temperature  
Mean Temperature 60 °F -  
Max Temperature 78 °F 77 °F 94 °F (1988)
Min Temperature 44 °F 51 °F 30 °F (1958)
Degree Days  
Heating Degree Days 4    
Growing Degree Days 10 (Base 50)    
Moisture  
Dew Point 41 °F    
Average Humidity 53    
Maximum Humidity 93    
Minimum Humidity 22    
Precipitation  
Precipitation 0.00 in - - ()
Sea Level Pressure  
Sea Level Pressure 30.10 in    
Wind  
Wind Speed 3 mph (East)    
Max Wind Speed 12 mph    
Max Gust Speed -    
Visibility 10 miles    
Events      
Averages and records for this station are not official NWS values.
T = Trace of Precipitation, MM = Missing Value Source: NWS Daily Summary

Daily Weather History Graph

Daily Weather History Graph

Search for Another Location

Airport or City:

Trip Planner

Search our weather history database for the weather conditions in past years. The results will help you decide how hot, cold, wet, or windy it might be!

Date:

Astronomy

Jun. 14, 2013 Rise Set
Actual Time 5:01 AM CDT 8:43 PM CDT
Civil Twilight 4:23 AM CDT 9:22 PM CDT
Nautical Twilight 3:32 AM CDT 10:13 PM CDT
Astronomical Twilight 2:21 AM CDT 11:24 PM CDT
Moon 10:52 AM CDT (6/14) No Moon Set
Length of Visible Light 16h 58m
Length of Day
15h 42m
Waxing Crescent, 30% of the Moon is Illuminated
Jun 14
Waxing Crescent
Jun 16
First Quarter
Jun 23
Full
Jun 29
Last Quarter
Jul 8
New

Hourly Weather History & Observations

Time (CDT) Temp. Windchill Dew Point Humidity Pressure Visibility Wind Dir Wind Speed Gust Speed Precip Events Conditions
12:54 AM 48.9 °F - 46.0 °F 90% 30.12 in 10.0 mi NW 3.5 mph - N/A   Clear
1:54 AM 46.9 °F - 44.1 °F 90% 30.13 in 10.0 mi Variable 3.5 mph - N/A   Clear
2:54 AM 45.0 °F 43.5 °F 43.0 °F 93% 30.12 in 10.0 mi NNW 3.5 mph - N/A   Clear
3:54 AM 45.0 °F - 42.1 °F 90% 30.14 in 10.0 mi Calm Calm - N/A   Clear
4:54 AM 44.1 °F - 39.9 °F 85% 30.15 in 10.0 mi Calm Calm - N/A   Clear
5:54 AM 44.1 °F - 41.0 °F 89% 30.17 in 10.0 mi Calm Calm - N/A   Clear
6:54 AM 50.0 °F - 45.0 °F 83% 30.16 in 10.0 mi NNW 3.5 mph - N/A   Clear
7:54 AM 55.9 °F - 44.1 °F 64% 30.17 in 10.0 mi North 4.6 mph - N/A   Clear
8:54 AM 61.0 °F - 41.0 °F 48% 30.18 in 10.0 mi Calm Calm - N/A   Clear
9:54 AM 64.9 °F - 42.1 °F 43% 30.17 in 10.0 mi Calm Calm - N/A   Clear
10:54 AM 69.1 °F - 39.9 °F 35% 30.15 in 10.0 mi NE 6.9 mph - N/A   Clear
11:54 AM 70.0 °F - 37.0 °F 30% 30.13 in 10.0 mi Variable 3.5 mph - N/A   Clear
12:54 PM 72.0 °F - 36.0 °F 27% 30.11 in 10.0 mi Calm Calm - N/A   Clear
1:54 PM 73.9 °F - 33.1 °F 22% 30.10 in 10.0 mi Calm Calm - N/A   Clear
2:54 PM 75.9 °F - 37.0 °F 24% 30.08 in 10.0 mi Variable 4.6 mph - N/A   Clear
3:54 PM 75.9 °F - 36.0 °F 23% 30.07 in 10.0 mi Variable 3.5 mph - N/A   Clear
4:54 PM 77.0 °F - 39.9 °F 26% 30.04 in 10.0 mi SE 6.9 mph - N/A   Clear
5:54 PM 75.0 °F - 43.0 °F 32% 30.02 in 10.0 mi Calm Calm - N/A   Clear
6:54 PM 72.0 °F - 46.0 °F 40% 30.02 in 10.0 mi SSE 11.5 mph - N/A   Clear
7:54 PM 68.0 °F - 44.1 °F 42% 30.02 in 10.0 mi SSE 8.1 mph - N/A   Clear
8:54 PM 64.9 °F - 43.0 °F 45% 30.04 in 10.0 mi SE 5.8 mph - N/A   Clear
9:54 PM 63.0 °F - 42.1 °F 46% 30.03 in 10.0 mi SE 6.9 mph - N/A   Clear
10:54 PM 62.1 °F - 43.0 °F 50% 30.01 in 10.0 mi SSE 4.6 mph - N/A   Partly Cloudy
11:54 PM 60.1 °F - 44.1 °F 55% 30.00 in 10.0 mi ESE 3.5 mph - N/A   Mostly Cloudy